Terminal Aerodrome Forecast
Issued by NWS

Home | Current Version | Previous Version | Text Only | Print | Product List | Glossary On
Versions: 1 2 3 4 5 6 7 8 9 10 11 12 13 14 15 16 17 18 19 20 21 22 23 24 25 26 27 28 29 30
000
FTAK31 PAFA 232330
TAFAOM
TAF
PAOM 232330Z 2400/2424 22021G28KT 2SM -RA BR SCT004 BKN008 OVC013
     FM240400 24015G22KT 4SM -SHRA BR SCT005 OVC007
     FM240800 22010G16KT 5SM -SHRA BR SCT007 OVC010
     FM241500 21005KT P6SM VCSH SCT007 OVC012=

USA.gov is the U.S. government's official web portal to all federal, state and local government web resources and services.